Hourly Data Report for July 16, 2021

CARIBOU POINT (AUT)
NOVA SCOTIA
Current Station Operator: ECCC - MSC

45°46'00.000" N
62°41'00.000" W
2.40 m
8200774
71415
WBK

Download Data

Hourly Data (July 2021)
Hourly Data Report for July 16, 2021
TIME
LST
Temp Definition
°C
Dew Point Definition
°C
Rel Hum Definition
%
Precip. Amount Definition
mm

Wind Dir Definition
10's deg

Wind Spd Definition
km/h
Visibility Definition
km
Stn Press Definition
kPa
Hmdx Definition


Wind Chill Definition


Weather Definition


00:00 20.1 18.7 92 0.0 20 18   101.65 27   LegendNANA
01:00 20.0 18.8 93 0.0 21 9   101.63 27   LegendNANA
02:00 19.8 18.7 93 0.0 19 18   101.58     LegendNANA
03:00 20.2 19.0 93 0.0 21 9   101.58 27   LegendNANA
04:00 20.4 19.1 92 0.0 21 10   101.59 27   LegendNANA
05:00 20.4 19.0 92 0.0 18 7   101.55 27   LegendNANA
06:00 21.2 19.7 91 0.0 21 9   101.54 29   LegendNANA
07:00 22.0 20.1 89 0.0 20 17   101.52 30   LegendNANA
08:00 23.4 20.2 82 0.0 21 18   101.49 31   LegendNANA
09:00 23.9 20.6 82 0.0 21 16   101.48 32   LegendNANA
10:00 24.8 20.9 79 0.0 20 13   101.45 33   LegendNANA
11:00 25.0 20.8 78 0.0 20 14   101.40 33   LegendNANA
12:00 26.0 21.1 75 0.0 20 21   101.40 35   LegendNANA
13:00 26.7 20.5 69 0.0 20 16   101.34 35   LegendNANA
14:00 27.5 20.3 65 0.0 20 20   101.29 35   LegendNANA
15:00 27.8 20.4 64 0.0 20 23   101.26 36   LegendNANA
16:00 27.4 20.9 68 0.0 20 23   101.27 36   LegendNANA
17:00 26.6 21.0 71 0.0 19 22   101.23 35   LegendNANA
18:00 25.7 20.8 74 0.0 19 19   101.20 34   LegendNANA
19:00 25.2 20.7 76 0.0 20 17   101.20 33   LegendNANA
20:00 24.2 20.2 79 0.0 21 14   101.20 32   LegendNANA
21:00 23.1 19.9 82 0.0 21 9   101.27 31   LegendNANA
22:00 22.4 19.8 85 0.0 20 15   101.28 30   LegendNANA
23:00 22.2 19.8 86 0.0 24 11   101.32 30   LegendNANA

Notes on Data Quality.

Legend

  • E = Estimated
  • M = Missing
  • NA = Not Available*
  • [empty] = Indicates an unobserved value
Date modified: